[[{"header":{"parameterUnit":"m.s-1","parameterCategory":1,"la1":30.2991,"la2":30.254,"lo1":-89.0895,"lo2":-89.0444,"dy":0.0017,"dx":0.0017,"nx":28,"ny":28,"refTime":"2023-04-05T15:00:00:Z","depth":0,"parameterNumber":2,"parameterNumberName":"U-component_of_WINDS"},"data":[0,0,0,0,0,0,0,0,0,0,0,0,0,0,0,0,0,0,0,0,0,0,0,0,0,0,0,0,0,0,0,0,0,0,0,0,0,0,0,0,0,0,0,0,0,0,0,0,0,0,0,0,0,0,0,0,0,0,-4.0423,-4.0423,0,-4.0446,-4.0446,-4.0446,-4.0374,-4.0372,-4.0369,-4.0367,-4.0391,-4.0393,-4.0396,0,0,0,0,0,0,0,0,0,0,0,0,0,-4.0318,-4.032,-4.0423,-4.0423,-4.0423,-4.0446,-4.0446,-4.0446,-4.0374,-4.0371,-4.0369,-4.0366,-4.039,-4.0393,-4.0396,0,0,0,0,0,0,0,0,0,0,0,0,0,-4.0354,-4.0321,-4.0423,-4.039,-4.0387,-4.0445,-4.0446,-4.0446,-4.0375,-4.0371,-4.0368,-4.0365,-4.0389,-4.0392,-4.0396,-4.0487,0,0,-4.0409,-4.041,0,0,0,0,0,0,0,0,-4.0352,-4.0358,-4.0395,-4.0392,-4.0389,-4.0403,-4.0417,-4.046,-4.0376,-4.038,-4.0367,-4.0363,-4.0397,-4.0401,-4.0412,-4.0488,-4.0489,-4.0409,-4.0411,-4.0413,-4.0414,0,0,0,0,0,0,0,-4.035,-4.0357,-4.0432,-4.0395,-4.0392,-4.0375,-4.0376,-4.0425,-4.0407,-4.0379,-4.0374,-4.0377,-4.0395,-4.0408,-4.0412,-4.0489,-4.0409,-4.0412,-4.0415,-4.0416,-4.0642,-4.0645,0,0,0,0,0,0,-4.0352,-4.0355,-4.0431,-4.0432,-4.0362,-4.0379,-4.0381,-4.0402,-4.0406,-4.0403,-4.038,-4.0374,-4.0403,-4.0407,-4.0413,-4.0518,-4.0413,-4.0417,-4.0419,-4.0638,-4.0643,-4.0647,0,0,0,0,0,0,-4.035,-4.0359,-4.043,-4.0392,-4.04,-4.0385,-4.0409,-4.0404,-4.0417,-4.0407,-4.0403,-4.0397,-4.0401,-4.0407,-4.0469,-4.0518,-4.0419,-4.0422,-4.0634,-4.064,-4.0645,-4.0731,0,0,0,0,0,0,-4.0347,-4.0359,-4.0392,-4.0394,-4.0402,-4.0486,-4.0412,-4.0407,-4.0424,-4.0416,-4.0421,-4.0419,-4.0399,-4.0464,-4.0473,-4.0522,-4.0425,-4.063,-4.0637,-4.0643,-4.0724,-4.0739,-4.0752,0,0,0,0,0,-4.0343,-4.0416,-4.0394,-4.0404,-4.0444,-4.0489,-4.0494,-4.0469,-4.0429,-4.0462,-4.0456,-4.0419,-4.0512,-4.0471,-4.0481,-4.0531,-4.0626,-4.0635,-4.0643,-4.0718,-4.0736,-4.0752,0,0,0,0,0,0,-4.0419,-4.0415,-4.0391,-4.0466,-4.0479,-4.0477,-4.0518,-4.0489,-4.0513,-4.0504,-4.0473,-4.0475,-4.0543,-4.0544,-4.0497,-4.062,-4.0562,-4.0573,-4.0616,-4.0633,-4.0647,-4.0644,-4.0429,0,0,0,0,0,-4.0445,-4.0482,-4.0476,-4.0543,-4.055,-4.0534,-4.0552,-4.0532,-4.0544,-4.0548,-4.0546,-4.0559,-4.0591,-4.0613,-4.0642,-4.0725,-4.0725,-4.0765,-4.0779,-4.0791,-4.0799,-4.0844,-4.0861,-4.0673,-4.0673,-4.0673,0,0,-4.0498,-4.05,-4.0525,-4.0558,-4.0565,-4.0604,-4.0538,-4.0582,-4.061,-4.0555,-4.0613,-4.0613,-4.0625,-4.0698,-4.0731,-4.0701,-4.0852,-4.0801,-4.081,-4.0813,-4.0854,-4.0872,-4.0888,-4.0679,-4.0678,-4.0677,0,0,-4.0613,-4.0619,-4.0675,-4.0684,-4.0697,-4.0686,-4.07,-4.0703,-4.0701,-4.0759,-4.0719,-4.0753,-4.0809,-4.0819,-4.0832,-4.0956,-4.0922,-4.0966,-4.1038,-4.1082,-4.1096,-4.1109,-4.1152,-4.1168,-4.0975,-4.0976,-4.0976,0,-4.0677,-4.0733,-4.0708,-4.0754,-4.077,-4.0724,-4.078,-4.0791,-4.0812,-4.0824,-4.0792,-4.0862,-4.0867,-4.0942,-4.0973,-4.0985,-4.1,-4.0964,-4.1096,-4.1109,-4.1121,-4.1161,-4.1178,-4.0981,-4.098,-4.098,-4.0979,0,-4.0811,-4.0851,-4.0895,-4.0917,-4.0939,-4.099,-4.0973,-4.0998,-4.0978,-4.097,-4.1031,-4.1036,-4.1066,-4.1083,-4.1063,-4.1156,-4.1137,-4.1102,-4.1042,-4.1144,-4.1182,-4.1197,-4.0988,-4.0986,-4.0985,-4.0984,0,0,-4.097,-4.0981,-4.0997,-4.1007,-4.1019,-4.1049,-4.11,-4.1129,-4.1151,-4.1169,-4.121,-4.126,-4.1227,-4.1242,-4.1224,-4.1262,-4.1359,-4.1222,-4.1221,-4.1246,-4.1461,-4.1486,-4.1505,-4.1339,-4.1342,-4.1344,-4.146,0,-4.1083,-4.1169,-4.1149,-4.1233,-4.127,-4.1229,-4.1273,-4.1285,-4.1281,-4.1312,-4.1308,-4.1343,-4.1298,-4.1307,-4.1344,-4.134,-4.1402,-4.1331,-4.1376,-4.1378,-4.1371,-4.1525,-4.1551,-4.166,-4.1475,-4.1477,-4.1479,0,-4.1224,-4.1248,-4.1337,-4.1344,-4.1359,-4.1399,-4.1425,-4.1455,-4.147,-4.1464,-4.1482,-4.1457,-4.1507,-4.1451,-4.152,-4.1473,-4.1491,-4.1492,-4.1496,-4.1496,-4.1432,-4.1528,-4.1694,-4.171,-4.1502,-4.15,-4.1499,0,-4.133,-4.1385,-4.1445,-4.1455,-4.1465,-4.1494,-4.15,-4.1511,-4.1531,-4.1554,-4.1567,-4.1596,-4.1612,-4.1636,-4.1619,-4.158,-4.1691,-4.1633,-4.1687,-4.1688,-4.171,-4.1708,-4.1879,-4.1726,-4.1726,-4.1725,-4.1725,0,-4.1456,-4.1511,-4.1492,-4.1529,-4.1591,-4.1569,-4.163,-4.1631,-4.1642,-4.1679,-4.1646,-4.1681,-4.1658,-4.1692,-4.168,-4.1739,-4.1747,-4.1744,-4.1739,-4.1745,-4.1745,-4.1754,-4.1745,-4.173,-4.1729,-4.1728,-4.1727,0,-4.1583,-4.1572,-4.1635,-4.1641,-4.1644,-4.1689,-4.1694,-4.1728,-4.1723,-4.177,-4.178,-4.1772,-4.181,-4.1797,-4.1838,-4.183,-4.1905,-4.1892,-4.19,-4.1896,-4.195,-4.1944,-4.213,-4.2153,-4.1988,-4.1989,-4.1991,0,-4.1662,-4.1704,-4.1715,-4.1738,-4.1746,-4.1782,-4.1803,-4.1784,-4.1806,-4.1827,-4.186,-4.1895,-4.1922,-4.1985,-4.1983,-4.2015,-4.2001,-4.2064,-4.2005,-4.201,-4.2,-4.1996,-4.2,-4.2075,-4.2077,-4.2078,-4.208,0,-4.1804,-4.1797,-4.1828,-4.1858,-4.1883,-4.1905,-4.1925,-4.1945,-4.1928,-4.1955,-4.1994,-4.2015,-4.2058,-4.2094,-4.2123,-4.2129,-4.2102,-4.2099,-4.2113,-4.2117,-4.2119,-4.2117,-4.1929,-4.2094,-4.2092,-4.2091,-4.209,-4.209,-4.1908,-4.1943,-4.1957,-4.1993,-4.2006,-4.2026,-4.2058,-4.2059,-4.2091,-4.2124,-4.2112,-4.2156,-4.2172,-4.2208,-4.2219,-4.2254,-4.2229,-4.225,-4.2254,-4.2259,-4.2265,-4.2117,-4.2259,-4.2259,-4.2259,-4.2258,-4.2258,0,-4.2046,-4.2054,-4.2087,-4.2116,-4.2145,-4.2118,-4.2139,-4.2165,-4.2204,-4.2221,-4.2249,-4.2295,-4.233,-4.2332,-4.2365,-4.2393,-4.2381,-4.2402,-4.2399,-4.24,-4.2286,-4.227,-4.2411,-4.2411,-4.2411,-4.2411,-4.2411,-4.2411,-4.2121,-4.218,-4.2176,-4.2242,-4.2249,-4.2293,-4.2307,-4.2325,-4.2338,-4.2391,-4.242,-4.2422,-4.2433,-4.2467,-4.2499,-4.2498,-4.2511,-4.2537,-4.2532,-4.2424,-4.2408,-4.2394,-4.2378,-4.254,-4.254,-4.2643,-4.2644,-4.2644]},{"header":{"parameterUnit":"m.s-1","parameterCategory":1,"la1":30.2991,"la2":30.254,"lo1":-89.0895,"lo2":-89.0444,"dy":0.0017,"dx":0.0017,"nx":28,"ny":28,"refTime":"2023-04-05T15:00:00:Z","depth":0,"parameterNumber":3,"parameterNumberName":"V-component_of_WINDS"},"data":[0,0,0,0,0,0,0,0,0,0,0,0,0,0,0,0,0,0,0,0,0,0,0,0,0,0,0,0,0,0,0,0,0,0,0,0,0,0,0,0,0,0,0,0,0,0,0,0,0,0,0,0,0,0,0,0,0,0,1.6723,1.6724,0,1.6769,1.6769,1.677,1.6785,1.6785,1.6785,1.6784,1.6828,1.683,1.6831,0,0,0,0,0,0,0,0,0,0,0,0,0,1.665,1.6652,1.6723,1.6724,1.6725,1.6769,1.6769,1.677,1.6785,1.6785,1.6785,1.6784,1.6828,1.683,1.6831,0,0,0,0,0,0,0,0,0,0,0,0,0,1.6687,1.6652,1.6723,1.6738,1.6739,1.6768,1.6769,1.677,1.6785,1.6785,1.6785,1.6784,1.6827,1.6829,1.6831,1.6849,0,0,1.6838,1.6838,0,0,0,0,0,0,0,0,1.6685,1.669,1.6735,1.6737,1.6739,1.6771,1.676,1.6796,1.6785,1.6768,1.6784,1.6784,1.6809,1.6813,1.6822,1.6851,1.6853,1.6838,1.6839,1.684,1.684,0,0,0,0,0,0,0,1.6683,1.6688,1.6741,1.6736,1.6738,1.6742,1.6747,1.6767,1.6789,1.6769,1.677,1.6776,1.681,1.682,1.6823,1.6854,1.6838,1.6839,1.6841,1.6841,1.6902,1.6903,0,0,0,0,0,0,1.6678,1.6686,1.674,1.6743,1.6711,1.6743,1.6749,1.6761,1.6789,1.6793,1.6776,1.6776,1.6817,1.6821,1.6825,1.6849,1.684,1.6842,1.6843,1.6902,1.6902,1.6903,0,0,0,0,0,0,1.6676,1.6683,1.6738,1.6715,1.6722,1.6745,1.6758,1.6762,1.6771,1.6794,1.6798,1.6781,1.6817,1.6822,1.6844,1.685,1.6843,1.6844,1.6901,1.6902,1.6902,1.6896,0,0,0,0,0,0,1.6674,1.6682,1.6689,1.6715,1.6723,1.6756,1.6759,1.6763,1.6775,1.6776,1.6801,1.6804,1.6817,1.6841,1.6846,1.6853,1.6846,1.6901,1.6902,1.6902,1.6895,1.6896,1.6897,0,0,0,0,0,1.6671,1.6684,1.6689,1.6695,1.6732,1.6756,1.6761,1.6776,1.6775,1.6783,1.6798,1.6804,1.6849,1.6843,1.6848,1.6856,1.69,1.6901,1.6902,1.6895,1.6896,1.6897,0,0,0,0,0,0,1.6656,1.6687,1.6693,1.6714,1.6733,1.6759,1.6768,1.6776,1.6794,1.6794,1.6811,1.6816,1.6837,1.6849,1.6841,1.6876,1.6875,1.6877,1.6868,1.6869,1.6869,1.6866,1.6848,0,0,0,0,0,1.6656,1.6673,1.6699,1.6715,1.6725,1.6745,1.6756,1.6766,1.6785,1.6793,1.681,1.6828,1.6847,1.6858,1.6876,1.6898,1.6904,1.6906,1.6907,1.6907,1.6909,1.6923,1.6924,1.6906,1.6906,1.6906,0,0,1.6654,1.6673,1.6683,1.6713,1.6728,1.6747,1.6751,1.6769,1.6783,1.6795,1.6818,1.6831,1.6852,1.6875,1.6885,1.6885,1.6916,1.6908,1.6908,1.691,1.6924,1.6926,1.6927,1.6906,1.6906,1.6906,0,0,1.666,1.6676,1.6692,1.6709,1.6733,1.6747,1.6751,1.6776,1.6786,1.6809,1.6819,1.6836,1.6867,1.6883,1.6895,1.691,1.6917,1.6916,1.6918,1.6932,1.6934,1.6935,1.6942,1.6944,1.6917,1.6917,1.6917,0,1.6655,1.6682,1.6699,1.6718,1.6732,1.6746,1.6763,1.6778,1.6806,1.6815,1.6815,1.6856,1.6872,1.6899,1.6903,1.6912,1.6917,1.6913,1.6932,1.6934,1.6935,1.6942,1.6944,1.6917,1.6917,1.6917,1.6917,0,1.6675,1.6695,1.6705,1.6734,1.6749,1.6766,1.6787,1.68,1.6809,1.6823,1.6848,1.6867,1.689,1.6898,1.6906,1.6927,1.6926,1.6929,1.6928,1.6936,1.6943,1.6946,1.6917,1.6917,1.6917,1.6917,0,0,1.6671,1.6712,1.6715,1.673,1.6759,1.6774,1.6793,1.6817,1.6829,1.6848,1.6865,1.6893,1.6897,1.691,1.6921,1.6933,1.6946,1.6935,1.6935,1.6937,1.6971,1.6969,1.6972,1.6951,1.6952,1.6952,1.697,0,1.6682,1.6717,1.6734,1.6762,1.6781,1.6796,1.6813,1.6833,1.6847,1.6866,1.6881,1.6901,1.6904,1.6913,1.6925,1.6942,1.6953,1.6941,1.6967,1.6968,1.6961,1.6975,1.6973,1.6988,1.6973,1.6973,1.6973,0,1.6698,1.672,1.675,1.6779,1.6788,1.6803,1.6828,1.6845,1.6868,1.6878,1.6895,1.6906,1.6928,1.6926,1.6956,1.6947,1.696,1.697,1.6971,1.6974,1.6971,1.6979,1.6994,1.6996,1.6977,1.6977,1.6977,0,1.6693,1.673,1.6753,1.6765,1.6799,1.681,1.6825,1.6848,1.6862,1.6884,1.6894,1.6918,1.693,1.6949,1.6966,1.6963,1.6995,1.6995,1.7004,1.7004,1.701,1.7009,1.7027,1.7017,1.7017,1.7017,1.7017,0,1.6703,1.6721,1.6752,1.6766,1.6788,1.6808,1.6828,1.6844,1.6866,1.6884,1.6898,1.6914,1.6937,1.6956,1.697,1.6994,1.6999,1.7008,1.7012,1.7007,1.7006,1.7015,1.7014,1.7018,1.7018,1.7018,1.7018,0,1.67,1.6722,1.6749,1.678,1.6789,1.6803,1.683,1.6845,1.6861,1.6884,1.6891,1.6916,1.694,1.696,1.6991,1.7001,1.7026,1.7029,1.7018,1.702,1.7029,1.7028,1.7053,1.7058,1.7045,1.7045,1.7045,0,1.6705,1.672,1.6754,1.6768,1.6783,1.6805,1.682,1.6842,1.6857,1.6887,1.6898,1.6924,1.6945,1.6983,1.7004,1.7029,1.7034,1.7041,1.7037,1.7033,1.7035,1.7034,1.7036,1.7041,1.7041,1.7041,1.7041,0,1.6712,1.6723,1.6745,1.6772,1.679,1.6812,1.6834,1.6844,1.687,1.6887,1.6913,1.693,1.6963,1.6988,1.7016,1.7031,1.7041,1.7043,1.7046,1.7041,1.7035,1.7039,1.7019,1.7041,1.7041,1.7041,1.7041,1.7041,1.6714,1.6728,1.6756,1.678,1.68,1.6821,1.6837,1.6857,1.6879,1.6908,1.692,1.6947,1.6972,1.701,1.7026,1.7047,1.7048,1.7053,1.7054,1.7055,1.7055,1.7032,1.7052,1.7052,1.7052,1.7052,1.7052,0,1.6722,1.6741,1.6764,1.6796,1.6816,1.6825,1.685,1.6866,1.689,1.6913,1.6935,1.6966,1.6992,1.7016,1.7043,1.7055,1.7061,1.7062,1.7061,1.7065,1.7052,1.7047,1.7057,1.7057,1.7057,1.7057,1.7057,1.7057,1.6728,1.6754,1.6769,1.6805,1.6824,1.6851,1.6865,1.6885,1.6904,1.6938,1.696,1.6977,1.7001,1.703,1.7054,1.7061,1.707,1.7071,1.7078,1.7066,1.7065,1.7064,1.7059,1.7072,1.7072,1.7089,1.7089,1.7089]}]]